Voltar ao catálogo

LEMUR-2 EMARCHIA

AtivoCiênciaSSO
NORAD 68492·PAYLOAD·🇩🇪 Germany

Lançado Mar 30, 2026 de Vandenberg Space Force Base

Loading…

Próximas Passagens (próximas 24 horas)

TLE

AtualizadoSource: Space-Track

Época: Sep 14, 2026, 20:48 UTC

1 68492U 26067CE  26257.86670854  .00004188  00000-0  41372-3 0  9997
2 68492  97.7651 214.6915 0004882 104.8963 255.2797 14.92461677 25097

Acompanhe LEMUR-2 EMARCHIA em tempo real com AllMySat

Download on the App Store